Weather History for Greenville, SC

Change the Weather History Date:

Wednesday, January 2, 2013

  Actual Average (KGSP) Record (KGSP)
Temperature  
Mean Temperature 50 °F 42 °F  
Max Temperature 53 °F 52 °F 74 °F (1952)
Min Temperature 44 °F 32 °F 5 °F (1928)
Degree Days  
Heating Degree Days 16 23  
Month to date heating degree days 46  
Since 1 July heating degree days 1249  
Cooling Degree Days 0 0  
Month to date cooling degree days 0  
Year to date cooling degree days 0  
Moisture  
Dew Point 47 °F    
Average Humidity 90    
Maximum Humidity 100    
Minimum Humidity 62    
Precipitation  
Precipitation 0.06 in 0.12 in 1.76 in (1919)
Month to date precipitation 0.24  
Year to date precipitation 0.24  
Snow  
Snow 0.00 in 0.00 in 1.60 in (2002)
Month to date snowfall 0.1  
Since 1 July snowfall 0.6  
Snow Depth -    
Sea Level Pressure  
Sea Level Pressure 30.03 in    
Wind  
Wind Speed 2 mph (East)    
Max Wind Speed 8 mph    
Max Gust Speed -    
Visibility 8 miles    
Events Rain    
T = Trace of Precipitation, MM = Missing Value Source: NWS Daily Summary

Daily Weather History Graph

Daily Weather History Graph

Search for Another Location

Airport:

Trip Planner

Search our weather history database for the weather conditions in past years. The results will help you decide how hot, cold, wet, or windy it might be!

Date:

Astronomy

Jan. 02, 2013 Rise Set
Actual Time 7:37 AM EST 5:30 PM EST
Civil Twilight 7:09 AM EST 5:58 PM EST
Nautical Twilight 6:37 AM EST 6:29 PM EST
Astronomical Twilight 6:07 AM EST 7:00 PM EST
Moon 10:47 PM EST (1/2) 10:31 AM EST (1/2)
Length of Visible Light 10h 49m
Length of Day
9h 53m
Waning Gibbous, 75% of the Moon is Illuminated
Jan 2
Waning Gibbous
Jan 4
Last Quarter
Jan 11
New
Jan 18
First Quarter
Jan 26
Full

Hourly Weather History & Observations

Time (EST) Temp. Windchill Dew Point Humidity Pressure Visibility Wind Dir Wind Speed Gust Speed Precip Events Conditions
12:15 AM 50.0 °F - 50.0 °F 100% 29.94 in 4.0 mi Calm Calm - 0.01 in Rain Light Rain
12:35 AM 50.0 °F - 50.0 °F 100% 29.94 in 4.0 mi Calm Calm - 0.02 in Rain Light Rain
12:55 AM 50.0 °F - 50.0 °F 100% 29.93 in 3.0 mi Calm Calm - 0.04 in Rain Rain
1:15 AM 50.0 °F - 50.0 °F 100% 29.92 in 4.0 mi Calm Calm - N/A Rain Light Rain
1:55 AM 50.0 °F - 48.2 °F 94% 29.89 in 2.5 mi ESE 4.6 mph - 0.02 in Rain Light Rain
2:15 AM 50.0 °F - 50.0 °F 100% 29.92 in 4.0 mi NNW 4.6 mph - N/A Rain Light Rain
2:55 AM 50.0 °F - 50.0 °F 100% 29.93 in 4.0 mi Calm Calm - N/A Rain Light Rain
3:15 AM 50.0 °F - 50.0 °F 100% 29.93 in 5.0 mi Calm Calm - N/A   Overcast
3:35 AM 50.0 °F - 50.0 °F 100% 29.92 in 5.0 mi Calm Calm - N/A   Overcast
3:55 AM 50.0 °F - 50.0 °F 100% 29.94 in 5.0 mi WNW 3.5 mph - N/A   Overcast
4:15 AM 50.0 °F - 50.0 °F 100% 29.94 in 7.0 mi WNW 3.5 mph - N/A   Overcast
4:35 AM 50.0 °F - 50.0 °F 100% 29.93 in 7.0 mi Calm Calm - N/A   Overcast
4:55 AM 50.0 °F - 50.0 °F 100% 29.95 in 10.0 mi Calm Calm - N/A   Overcast
5:15 AM 50.0 °F - 50.0 °F 100% 29.96 in 10.0 mi Calm Calm - N/A   Overcast
6:47 AM 50.0 °F - 46.4 °F 87% 29.97 in 10.0 mi Calm Calm - N/A   Overcast
7:47 AM 48.2 °F - 46.4 °F 93% 29.99 in 10.0 mi Calm Calm - N/A   Mostly Cloudy
8:47 AM 48.2 °F - 44.6 °F 87% 30.01 in 10.0 mi NE 4.6 mph - N/A   Clear
9:47 AM 51.8 °F - 44.6 °F 76% 30.04 in 10.0 mi Calm Calm - N/A   Mostly Cloudy
10:47 AM 51.8 °F - 44.6 °F 76% 30.06 in 10.0 mi Calm Calm - N/A   Mostly Cloudy
11:47 AM 53.6 °F - 44.6 °F 72% 30.06 in 10.0 mi ENE 6.9 mph - N/A   Mostly Cloudy
12:47 PM 53.6 °F - 44.6 °F 72% 30.04 in 10.0 mi East 5.8 mph - N/A   Mostly Cloudy
1:50 PM 53.6 °F - 44.6 °F 72% 30.02 in 10.0 mi East 3.5 mph - N/A   Mostly Cloudy
2:47 PM 53.6 °F - 41.0 °F 62% 30.02 in 10.0 mi East 4.6 mph - N/A   Overcast
3:47 PM 53.6 °F - 42.8 °F 67% 30.04 in 10.0 mi ENE 3.5 mph - N/A   Overcast
4:47 PM 53.6 °F - 42.8 °F 67% 30.05 in 10.0 mi Calm Calm - N/A   Clear
5:47 PM 51.8 °F - 42.8 °F 71% 30.06 in 10.0 mi Calm Calm - N/A   Overcast
6:47 PM 51.8 °F - 46.4 °F 82% 30.07 in 10.0 mi East 6.9 mph - N/A   Overcast
7:47 PM 48.2 °F - 46.4 °F 93% 30.10 in 10.0 mi East 6.9 mph - N/A   Overcast
8:15 PM 48.2 °F - 46.4 °F 93% 30.10 in 10.0 mi East 6.9 mph - N/A   Overcast
8:35 PM 48.2 °F - 46.4 °F 93% 30.11 in 10.0 mi East 8.1 mph - N/A   Overcast
8:47 PM 48.2 °F - 46.4 °F 93% 30.11 in 10.0 mi East 6.9 mph - N/A   Overcast
8:55 PM 48.2 °F - 44.6 °F 87% 30.11 in 10.0 mi East 4.6 mph - N/A   Overcast
9:15 PM 46.4 °F 44.3 °F 44.6 °F 93% 30.13 in 10.0 mi East 4.6 mph - N/A   Overcast
9:35 PM 46.4 °F 44.3 °F 44.6 °F 93% 30.13 in 10.0 mi East 4.6 mph - N/A   Overcast
9:55 PM 46.4 °F 44.3 °F 44.6 °F 93% 30.13 in 10.0 mi East 4.6 mph - N/A   Overcast
10:15 PM 46.4 °F 42.9 °F 44.6 °F 93% 30.13 in 10.0 mi ESE 6.9 mph - N/A   Overcast
10:35 PM 46.4 °F 43.5 °F 44.6 °F 93% 30.13 in 10.0 mi ESE 5.8 mph - N/A   Overcast
10:55 PM 46.4 °F 42.4 °F 44.6 °F 93% 30.12 in 10.0 mi East 8.1 mph - N/A   Overcast
11:15 PM 46.4 °F 42.9 °F 44.6 °F 93% 30.13 in 10.0 mi East 6.9 mph - N/A   Light Drizzle
11:55 PM 44.6 °F 40.7 °F 44.6 °F 100% 30.11 in 10.0 mi East 6.9 mph - N/A   Overcast